Location: Krakow
(50.0830°N, 19.9170°E)
Time: 12:49:26
(UTC+01:00)

Courier 1B - All Passes

Search period start: 15 March 2026 00:00
Search period end: 25 March 2026 00:00
Orbit: 962 x 1208 km, 28.3° (Epoch: 14 March)

Date Brightness Start Highest point End Pass type
(mag) Time Alt. Az. Time Alt. Az. Time Alt. Az.
15 Mar - 10:53:29 10° S 10:54:45 11° S 10:56:01 10° SSE daylight
16 Mar - 09:59:57 10° S 10:01:14 11° S 10:02:30 10° SSE daylight
17 Mar - 09:07:16 10° S 09:07:42 10° S 09:08:08 10° SSE daylight
17 Mar - 10:59:01 10° SSW 11:00:13 10° S 11:01:25 10° S daylight
18 Mar - 10:04:39 10° SSW 10:06:42 11° S 10:08:42 10° SSE daylight
19 Mar - 09:10:48 10° SSW 09:13:09 12° S 09:15:27 10° SSE daylight
20 Mar - 08:17:17 10° SSW 08:19:34 12° S 08:21:50 10° SSE daylight
20 Mar - 10:10:43 10° SSW 10:12:07 11° S 10:13:31 10° S daylight
21 Mar - 07:24:10 10° S 07:25:59 11° S 07:27:47 10° SSE daylight
21 Mar - 09:16:08 10° SSW 09:18:35 12° S 09:20:59 10° SSE daylight
22 Mar - 08:22:06 10° SSW 08:25:00 12° S 08:27:52 10° SSE daylight
23 Mar - 07:28:21 10° SSW 07:31:23 13° S 07:34:23 10° SSE daylight
23 Mar - 09:22:45 10° SSW 09:23:59 10° SSW 09:25:11 10° S daylight
24 Mar - 06:34:56 10° SSW 06:37:47 12° S 06:40:36 10° SSE daylight
24 Mar - 08:27:50 10° SSW 08:30:24 12° S 08:32:58 10° SSE daylight
